Tracking 28794 objects as of 19-Apr-2024
HD Live streaming from Space Station
objects crossing your sky now

SNAP 1

Track SNAP 1 now!
10-day predictions
SNAP 1 is classified as:


NORAD ID: 26386
Int'l Code: 2000-033C
Perigee: 658.7 km
Apogee: 671.3 km
Inclination: 97.7 °
Period: 97.9 minutes
Semi major axis: 7035 km
RCS: 0.132 m2 (medium)
Launch date: June 28, 2000
Source: United Kingdom (UK)
Launch site: PLESETSK MISSILE AND SPACE COMPLEX (PKMTR)
Your satellite tracking list
Your tracking list is empty




NASA's NSSDC Master Catalog

Two Line Element Set (TLE):
1 26386U 00033C   24109.98976245  .00003725  00000-0  61422-3 0  9992
2 26386  97.7274 122.6617 0008993 295.4073  64.6203 14.71006132532250
Source of the keplerian elements: AFSPC